Time,TemperatureF,DewpointF,PressureIn,WindDirection,WindDirectionDegrees,WindSpeedMPH,WindSpeedGustMPH,Humidity,HourlyPrecipIn,Conditions,Clouds,dailyrainin,SoftwareType,DateUTC
2013-08-10 00:02:00,66.1,65.0,30.05,SW,225,0.0,0.0,96,0.00,,,0.00,weatherlink.com 1.10,2013-08-10 05:02:00,
2013-08-10 00:17:00,66.0,65.0,30.05,SW,224,0.0,0.0,96,0.00,,,0.00,weatherlink.com 1.10,2013-08-10 05:17:00,
2013-08-10 00:32:00,65.8,65.0,30.05,SW,224,0.0,0.0,96,0.00,,,0.00,weatherlink.com 1.10,2013-08-10 05:32:00,
2013-08-10 00:47:00,65.8,65.0,30.06,SW,225,0.0,0.0,96,0.00,,,0.00,weatherlink.com 1.10,2013-08-10 05:47:00,
2013-08-10 01:02:00,65.6,65.0,30.06,SW,224,0.0,0.0,96,0.00,,,0.00,weatherlink.com 1.10,2013-08-10 06:02:00,
2013-08-10 01:17:00,65.5,64.0,30.06,SW,225,0.0,0.0,96,0.00,,,0.00,weatherlink.com 1.10,2013-08-10 06:17:00,
2013-08-10 01:47:00,65.1,64.0,30.06,SW,224,0.0,0.0,96,0.00,,,0.00,weatherlink.com 1.10,2013-08-10 06:47:00,
2013-08-10 02:02:00,65.1,64.0,30.05,SW,225,0.0,0.0,96,0.00,,,0.00,weatherlink.com 1.10,2013-08-10 07:02:00,
2013-08-10 02:17:00,64.8,64.0,30.06,SW,225,0.0,0.0,96,0.00,,,0.00,weatherlink.com 1.10,2013-08-10 07:17:00,
2013-08-10 02:32:00,64.8,64.0,30.06,SW,225,0.0,0.0,97,0.00,,,0.00,weatherlink.com 1.10,2013-08-10 07:32:00,
2013-08-10 02:47:00,64.6,64.0,30.06,SW,225,0.0,0.0,96,0.00,,,0.00,weatherlink.com 1.10,2013-08-10 07:47:00,
2013-08-10 03:02:00,64.5,64.0,30.06,SW,225,0.0,0.0,97,0.00,,,0.00,weatherlink.com 1.10,2013-08-10 08:02:00,
2013-08-10 03:17:00,64.4,64.0,30.06,SW,225,0.0,0.0,97,0.00,,,0.00,weatherlink.com 1.10,2013-08-10 08:17:00,
2013-08-10 03:32:00,64.4,64.0,30.06,SW,225,0.0,0.0,97,0.00,,,0.00,weatherlink.com 1.10,2013-08-10 08:32:00,
2013-08-10 03:48:00,64.5,64.0,30.06,SW,225,0.0,0.0,97,0.00,,,0.00,weatherlink.com 1.10,2013-08-10 08:48:00,
2013-08-10 04:03:00,64.4,64.0,30.06,SW,225,0.0,0.0,97,0.00,,,0.00,weatherlink.com 1.10,2013-08-10 09:03:00,
2013-08-10 04:18:00,64.1,63.0,30.06,SW,224,0.0,0.0,97,0.00,,,0.00,weatherlink.com 1.10,2013-08-10 09:18:00,
2013-08-10 04:33:00,64.0,63.0,30.06,SW,224,0.0,0.0,97,0.00,,,0.00,weatherlink.com 1.10,2013-08-10 09:33:00,
2013-08-10 04:48:00,63.9,63.0,30.06,SW,225,0.0,0.0,97,0.01,,,0.01,weatherlink.com 1.10,2013-08-10 09:48:00,
2013-08-10 05:03:00,64.3,64.0,30.07,SW,224,0.0,0.0,97,0.01,,,0.01,weatherlink.com 1.10,2013-08-10 10:03:00,
2013-08-10 05:18:00,64.2,63.0,30.06,SW,225,0.0,0.0,97,0.01,,,0.01,weatherlink.com 1.10,2013-08-10 10:18:00,
2013-08-10 05:33:00,64.3,64.0,30.07,SW,225,0.0,0.0,97,0.01,,,0.01,weatherlink.com 1.10,2013-08-10 10:33:00,
2013-08-10 05:48:00,64.4,64.0,30.07,SW,225,0.0,0.0,97,0.00,,,0.01,weatherlink.com 1.10,2013-08-10 10:48:00,
2013-08-10 06:03:00,64.4,64.0,30.07,SW,225,0.0,0.0,97,0.00,,,0.01,weatherlink.com 1.10,2013-08-10 11:03:00,
2013-08-10 06:18:00,64.3,64.0,30.07,SW,224,0.0,0.0,97,0.00,,,0.01,weatherlink.com 1.10,2013-08-10 11:18:00,
2013-08-10 06:33:00,64.1,63.0,30.07,SW,224,0.0,0.0,97,0.00,,,0.01,weatherlink.com 1.10,2013-08-10 11:33:00,
2013-08-10 06:48:00,63.9,63.0,30.08,SW,225,0.0,0.0,97,0.00,,,0.01,weatherlink.com 1.10,2013-08-10 11:48:00,
2013-08-10 07:03:00,63.7,63.0,30.08,SW,225,0.0,0.0,97,0.00,,,0.01,weatherlink.com 1.10,2013-08-10 12:03:00,
2013-08-10 07:18:00,63.8,63.0,30.08,SW,225,0.0,0.0,97,0.00,,,0.01,weatherlink.com 1.10,2013-08-10 12:18:00,
2013-08-10 07:33:00,64.2,63.0,30.09,SW,225,0.0,0.0,97,0.00,,,0.01,weatherlink.com 1.10,2013-08-10 12:33:00,
2013-08-10 07:48:00,64.6,64.0,30.10,WSW,243,0.0,0.0,97,0.00,,,0.01,weatherlink.com 1.10,2013-08-10 12:48:00,
2013-08-10 08:03:00,65.0,64.0,30.10,NNW,339,0.0,0.0,96,0.00,,,0.01,weatherlink.com 1.10,2013-08-10 13:03:00,
2013-08-10 08:18:00,65.6,64.0,30.10,South,188,0.0,0.0,94,0.00,,,0.01,weatherlink.com 1.10,2013-08-10 13:18:00,
2013-08-10 08:33:00,66.6,64.0,30.11,WSW,238,0.0,1.0,91,0.00,,,0.01,weatherlink.com 1.10,2013-08-10 13:33:00,
2013-08-10 08:48:00,67.8,64.0,30.11,SE,141,0.0,1.0,88,0.00,,,0.01,weatherlink.com 1.10,2013-08-10 13:48:00,
2013-08-10 09:03:00,70.5,65.0,30.12,NW,314,0.0,1.0,83,0.00,,,0.01,weatherlink.com 1.10,2013-08-10 14:03:00,
2013-08-10 09:17:00,73.1,66.0,30.11,SSE,153,0.0,1.0,77,0.00,,,0.01,weatherlink.com 1.10,2013-08-10 14:17:00,
2013-08-10 09:33:00,75.1,66.0,30.12,SE,125,0.0,2.0,73,0.00,,,0.01,weatherlink.com 1.10,2013-08-10 14:33:00,
2013-08-10 09:48:00,76.0,66.0,30.12,East,86,0.0,4.0,70,0.00,,,0.01,weatherlink.com 1.10,2013-08-10 14:48:00,
2013-08-10 10:03:00,78.4,67.0,30.12,SE,128,0.0,4.0,67,0.00,,,0.01,weatherlink.com 1.10,2013-08-10 15:03:00,
2013-08-10 10:18:00,79.2,66.0,30.12,SSE,165,0.0,1.0,65,0.00,,,0.01,weatherlink.com 1.10,2013-08-10 15:18:00,
2013-08-10 10:33:00,80.3,67.0,30.12,NNE,22,0.0,2.0,63,0.00,,,0.01,weatherlink.com 1.10,2013-08-10 15:33:00,
2013-08-10 10:48:00,80.7,66.0,30.12,ESE,106,0.0,3.0,62,0.00,,,0.01,weatherlink.com 1.10,2013-08-10 15:48:00,
2013-08-10 11:03:00,80.9,67.0,30.12,WSW,257,0.0,2.0,62,0.00,,,0.01,weatherlink.com 1.10,2013-08-10 16:03:00,
2013-08-10 11:18:00,81.5,66.0,30.13,WNW,290,0.0,4.0,60,0.00,,,0.01,weatherlink.com 1.10,2013-08-10 16:18:00,
2013-08-10 11:33:00,82.4,68.0,30.12,SW,221,0.0,2.0,61,0.00,,,0.01,weatherlink.com 1.10,2013-08-10 16:33:00,
2013-08-10 11:48:00,83.4,68.0,30.12,NNW,335,1.0,4.0,60,0.00,,,0.01,weatherlink.com 1.10,2013-08-10 16:48:00,
2013-08-10 12:03:00,83.9,66.0,30.12,SE,142,0.0,4.0,56,0.00,,,0.01,weatherlink.com 1.10,2013-08-10 17:03:00,
2013-08-10 12:18:00,83.3,67.0,30.12,ESE,119,0.0,2.0,58,0.00,,,0.01,weatherlink.com 1.10,2013-08-10 17:18:00,
2013-08-10 12:33:00,83.7,66.0,30.12,SE,134,0.0,3.0,56,0.00,,,0.01,weatherlink.com 1.10,2013-08-10 17:33:00,
2013-08-10 12:48:00,84.6,65.0,30.11,SE,136,0.0,2.0,52,0.00,,,0.01,weatherlink.com 1.10,2013-08-10 17:48:00,
2013-08-10 13:03:00,84.5,68.0,30.11,WSW,249,0.0,4.0,57,0.00,,,0.01,weatherlink.com 1.10,2013-08-10 18:03:00,
2013-08-10 13:18:00,85.5,66.0,30.11,SE,142,1.0,2.0,52,0.00,,,0.01,weatherlink.com 1.10,2013-08-10 18:18:00,
2013-08-10 13:33:00,85.5,66.0,30.10,NNE,21,0.0,3.0,53,0.00,,,0.01,weatherlink.com 1.10,2013-08-10 18:33:00,
2013-08-10 13:48:00,86.1,67.0,30.10,ESE,121,0.0,3.0,54,0.00,,,0.01,weatherlink.com 1.10,2013-08-10 18:48:00,
2013-08-10 14:03:00,85.9,65.0,30.09,SSE,165,0.0,4.0,49,0.00,,,0.01,weatherlink.com 1.10,2013-08-10 19:03:00,
2013-08-10 14:18:00,86.3,66.0,30.09,SE,132,1.0,4.0,51,0.00,,,0.01,weatherlink.com 1.10,2013-08-10 19:18:00,
2013-08-10 14:33:00,87.0,66.0,30.09,NNW,347,2.0,4.0,49,0.00,,,0.01,weatherlink.com 1.10,2013-08-10 19:33:00,
2013-08-10 14:48:00,87.3,64.0,30.09,SSW,194,1.0,2.0,46,0.00,,,0.01,weatherlink.com 1.10,2013-08-10 19:48:00,
2013-08-10 15:45:00,87.0,64.0,30.07,WSW,239,0.0,2.0,47,0.00,,,0.01,weatherlink.com 1.10,2013-08-10 20:45:00,
2013-08-10 17:31:00,81.1,63.0,30.04,South,174,0.0,1.0,54,0.00,,,0.01,weatherlink.com 1.10,2013-08-10 22:31:00,
2013-08-10 17:49:00,80.7,62.0,30.04,ESE,103,0.0,1.0,53,0.00,,,0.01,weatherlink.com 1.10,2013-08-10 22:49:00,
2013-08-10 18:04:00,80.6,60.0,30.03,SE,127,0.0,2.0,50,0.00,,,0.01,weatherlink.com 1.10,2013-08-10 23:04:00,
2013-08-10 18:19:00,80.2,61.0,30.03,SE,142,0.0,0.0,52,0.00,,,0.01,weatherlink.com 1.10,2013-08-10 23:19:00,
2013-08-10 18:34:00,79.8,62.0,30.02,SE,142,0.0,1.0,54,0.00,,,0.01,weatherlink.com 1.10,2013-08-10 23:34:00,
2013-08-10 18:49:00,79.6,63.0,30.02,SSE,154,0.0,0.0,57,0.00,,,0.01,weatherlink.com 1.10,2013-08-10 23:49:00,
2013-08-10 19:04:00,79.4,63.0,30.02,SSE,153,0.0,1.0,57,0.00,,,0.01,weatherlink.com 1.10,2013-08-11 00:04:00,
2013-08-10 19:28:00,79.5,63.0,30.02,SSE,151,0.0,0.0,57,0.00,,,0.01,weatherlink.com 1.10,2013-08-11 00:28:00,
2013-08-10 19:35:00,78.7,63.0,30.02,SSE,150,0.0,0.0,58,0.00,,,0.01,weatherlink.com 1.10,2013-08-11 00:35:00,
2013-08-10 19:52:00,77.1,63.0,30.02,SSE,151,0.0,0.0,62,0.00,,,0.01,weatherlink.com 1.10,2013-08-11 00:52:00,
2013-08-10 20:15:00,75.5,63.0,30.02,SSE,150,0.0,0.0,66,0.00,,,0.01,weatherlink.com 1.10,2013-08-11 01:15:00,
2013-08-10 20:20:00,75.1,63.0,30.02,SSE,150,0.0,0.0,66,0.00,,,0.01,weatherlink.com 1.10,2013-08-11 01:20:00,
2013-08-10 20:35:00,74.4,63.0,30.03,SSE,151,0.0,0.0,67,0.00,,,0.01,weatherlink.com 1.10,2013-08-11 01:35:00,
2013-08-10 20:57:00,72.9,63.0,30.03,SSE,150,0.0,0.0,70,0.00,,,0.01,weatherlink.com 1.10,2013-08-11 01:57:00,
2013-08-10 21:10:00,72.2,63.0,30.04,SSE,150,0.0,0.0,72,0.00,,,0.01,weatherlink.com 1.10,2013-08-11 02:10:00,
2013-08-10 21:20:00,72.1,63.0,30.04,SSE,151,0.0,0.0,72,0.00,,,0.01,weatherlink.com 1.10,2013-08-11 02:20:00,
2013-08-10 21:35:00,71.8,63.0,30.05,SSE,151,0.0,0.0,73,0.00,,,0.01,weatherlink.com 1.10,2013-08-11 02:35:00,
2013-08-10 21:50:00,71.4,63.0,30.05,SSE,151,0.0,0.0,74,0.00,,,0.01,weatherlink.com 1.10,2013-08-11 02:50:00,
2013-08-10 22:05:00,71.0,62.0,30.05,SSE,151,0.0,0.0,74,0.00,,,0.01,weatherlink.com 1.10,2013-08-11 03:05:00,
2013-08-10 22:48:00,69.5,62.0,30.05,SSE,151,0.0,0.0,77,0.00,,,0.01,weatherlink.com 1.10,2013-08-11 03:48:00,
2013-08-10 23:08:00,68.7,62.0,30.06,SSE,150,0.0,0.0,79,0.00,,,0.01,weatherlink.com 1.10,2013-08-11 04:08:00,
2013-08-10 23:20:00,68.2,62.0,30.05,SSE,151,0.0,0.0,80,0.00,,,0.01,weatherlink.com 1.10,2013-08-11 04:20:00,
2013-08-10 23:35:00,67.7,62.0,30.06,SSE,150,0.0,0.0,81,0.00,,,0.01,weatherlink.com 1.10,2013-08-11 04:35:00,
2013-08-10 23:50:00,67.6,62.0,30.06,SSE,151,0.0,0.0,81,0.00,,,0.01,weatherlink.com 1.10,2013-08-11 04:50:00,